Regional Weather Roundup
Issued by NWS Charleston, SC

Current Version | Previous Version | Text Only | Print | Product List | Glossary Off
Versions: 1 2 3 4 5 6 7 8 9 10 11 12 13 14 15 16 17 18 19 20 21 22 23 24 25 26 27 28 29 30 31 32 33 34 35 36 37 38 39 40 41 42 43 44 45 46 47 48 49 50
736 ASUS42 KCHS 240827 RWRCHS REGIONAL WEATHER ROUNDUP NATIONAL WEATHER SERVICE CHARLESTON SC 300 AM EST TUE JAN 24 2017 NOTE: "FAIR" INDICATES FEW OR NO CLOUDS BELOW 12,000 FEET WITH NO SIGNIFICANT WEATHER AND/OR OBSTRUCTIONS TO VISIBILITY. NOT ALL STATIONS ARE QUALITY CONTROLLED. USE DATA WITH CAUTION... ESPECIALLY DEWPOINT OBSERVATIONS. SCZ027-030-031-034>040-042>050-240900- ...SOUTHEAST SOUTH CAROLINA... CITY SKY/WX TMP DP RH WIND PRES REMARKS N CHARLESTON PTCLDY 54 47 77 W12G20 29.58R WATERFRONT PRK N/A 55 50 83 W7 29.56R MOUNT PLEASANT FAIR 55 48 76 W10 29.58R JOHNS ISLAND FAIR 54 48 82 W14 29.59R PINOPOLIS N/A 55 52 88 W12 29.49R MONCKS CORNER FAIR 52 46 82 CALM 29.59R SUMMERVILLE FAIR 52 48 87 W9 29.60R BEAUFORT MCAS CLEAR 53 45 74 W12 29.63R BEAUFORT ARPT FAIR 52 45 76 W15G22 29.63R HILTON HEAD IS CLEAR 54 45 71 VRB13G21 29.64R WALTERBORO SUNNY 50 45 81 W10 29.62R ALLENDALE FAIR 52 45 76 VRB5 29.63R ...SOUTHERN MIDLANDS AND PEE DEE... CITY SKY/WX TMP DP RH WIND PRES REMARKS GEORGETOWN PTSUNNY 52 50 93 W5 29.56R KINGSTREE FAIR 50 45 81 NW5 29.57R ORANGEBURG CLEAR 52 45 77 W8 29.60R BARNWELL FAIR 52 46 82 W7 29.62S AIKEN FAIR 46 43 87 W9 29.65S MANNING PTSUNNY 50 48 93 CALM 29.58R COLUMBIA CLEAR 51 45 79 W12 29.58R SUMTER CLEAR 51 47 86 W5 29.55R FLORENCE CLEAR 48 44 86 NW6 29.56R MYRTLE BEACH CLOUDY 52 45 76 W9 29.56R N MYRTLE BEACH MOCLDY 50 47 89 W7 29.52R $$ GAZ063-065-086>088-099>101-113>116-118-119-134>141-150-240900- ...SOUTHEAST GEORGIA... CITY SKY/WX TMP DP RH WIND PRES REMARKS SAVANNAH ARPT CLEAR 53 43 68 W17G23 29.66R HUNTER AAF CLEAR 53 48 82 W15G25 29.63R FORT STEWART CLEAR 54 44 71 W14G21 29.65R STATESBORO PTCLDY 51 46 81 W8 29.66S SYLVANIA MOSUNNY N/A N/A N/A W9 29.66R CLAXTON FAIR N/A N/A N/A W15 29.68R ...CSRA...CENTRAL AND FAR SOUTHEAST GEORGIA... CITY SKY/WX TMP DP RH WIND PRES REMARKS THOMSON PTCLDY 50 45 83 W7 29.71R AUGUSTA-BUSH PTCLDY 52 42 69 W10 29.63 AUGUSTA-DANIEL PTCLDY 51 40 65 W9G17 29.63R SWAINSBORO FAIR 50 45 81 W9 29.70R VIDALIA CLEAR 52 48 87 W9 29.70R EASTMAN FAIR 52 41 66 NW7 29.75S HAZLEHURST FAIR 53 50 88 NW6 29.70F ALMA CLEAR 54 47 77 NW12 29.71S WAYCROSS CLEAR 57 53 86 NW7 29.71F JESUP FAIR 55 45 67 NW13G18 29.69S BAXLEY FAIR 54 52 94 NW9 29.70F BRUNSWICK CLEAR 55 50 82 NW10G22 29.69R SAINT SIMONS CLEAR 56 47 71 W10G23 29.68R $$ SCZ027-028-034-036>038-045-046-048>050-GAZ119-141-240900- ...LAKE AND SUPPLEMENTAL COASTAL OBSERVATIONS... STATION/POSITION TIME TEMP WIND PRES WAVE SWELL AIR SEA DIR/SP/G HT/PER HT/PER/DIR (UTC) (F) (DEG/KT/KT) (MB) (FT/S) (FT/S/D) WINYAH BAY 0745 52 300/ 6 1000.0R LAKE MURRAY 0820 52 270/ 12/ 15 1001.4S ACE BASIN NERRS 0745 53 280/ 3 1003.0R FORT PULASKI 0800 55 59 300/ 18/ 21 1003.9 SAPELO ISLAND 0800 56 290/ 12 1005.0 $$ ANZ835-935-AMZ111-154-330-350-352-354-370-450-454-472-240900- ...C-MAN AND BUOY OBSERVATIONS... STATION/POSITION TIME TEMP WIND PRES WAVE SWELL AIR SEA DIR/SP/G HT/PER HT/PER/DIR (UTC) (F) (DEG/KT/KT) (MB) (FT/S) (FT/S/D) BUOY 41004 0750 61 68 300/ 21/ 27 999.7R 7/ 8 5/200/ 8 BUOY 41008 0750 57 59 290/ 23/ 27 1003.2R 5/ 5 2/100/12 FOLLY BEACH CMAN 0800 54 280/ 8/ 14 1002.1R CAPERS NEARSHORE 0708 56 56 290/ 10/ 14 1000.5R FRIPP NEARSHORE 0808 56 58 300/ 17/ 21 1002.5R STATION/POSITION TIME TEMP WIND PRES WAVE SWELL AIR SEA DIR/SP/G HT/PER HT/PER/DIR (UTC) (F) (DEG/KT/KT) (MB) (FT/S) (FT/S/D) 5E ST. MARYS GA 0800 62 N/A 3/ 4 2/100/14 FRYING PAN BUOY 0810 57 69 290/ 23/ 27 998.3 BUOY 41025 0650 53 75 310/ 25/ 31 992.6 9/11 7/140/11 CAPE LOOKOUT NC 0800 49 300/ 21/ 26 996.0R BUOY 41002 0750 67 71 290/ 21/ 27 995.8R 16/11 8/260/11 BUOY 41010 NOT AVBL ST AUGUSTINE FL 0800 58 63 290/ 10/ 13 1007.1R $$

USA.gov is the U.S. government's official web portal to all federal, state and local government web resources and services.